DateTimeUTC,F1_A11,F1_S11,BsB_S11,BsG_S11,BsR_S11,BbsB_S11,BbsG_S11,BbsR_S11,BaB_A11,BaG_A11,BaR_A11,Tu_S11,T_S11,Uu_S11,U_S11,P_S11,T1_A11
2021-08-04T05:00:00Z,00000200,20000000,,,,,,,0000.13,0000.19,0000.13,17.6,24.7,01.7,01.1,0669.4,30.9
2021-08-04T05:01:00Z,00000200,20000000,,,,,,,0000.25,-000.07,0000.13,17.6,24.7,01.7,01.1,0669.4,30.9
2021-08-04T05:02:00Z,00000200,20000000,,,,,,,-000.01,0000.20,0000.22,17.6,24.8,01.7,01.1,0669.4,30.9
2021-08-04T05:03:00Z,00000200,60000000,,,,,,,0000.47,0000.49,0000.34,17.7,24.8,01.7,01.1,0669.4,30.9
2021-08-04T05:04:00Z,00000200,41000000,0000.27,-000.11,-000.08,-000.04,0000.04,0000.08,0000.25,0000.18,0000.40,18.1,24.7,02.0,01.3,0670.2,30.9
2021-08-04T05:05:00Z,00000200,00000000,0000.65,0000.14,0000.24,0000.15,-000.02,0000.27,0000.12,0000.16,-000.21,18.2,24.7,02.0,01.3,0670.3,30.9
2021-08-04T05:06:00Z,00000200,00000000,0000.52,0000.43,0000.21,0000.34,-000.03,-000.01,-000.06,0000.30,0000.23,18.1,24.7,02.1,01.4,0670.2,30.9
2021-08-04T05:07:00Z,00000200,00000000,0000.74,-000.04,0000.22,-000.17,0000.12,0000.21,0000.02,-000.50,-000.27,18.1,24.6,02.2,01.5,0670.3,30.9
2021-08-04T05:08:00Z,00000200,00000000,0000.11,-000.15,-000.10,0000.04,-000.04,-000.15,-000.64,-000.40,-000.49,18.0,24.6,02.1,01.4,0670.3,30.9
2021-08-04T05:09:00Z,00000200,01000000,0000.80,0000.06,0000.11,0000.03,0000.05,-000.12,-000.60,-000.64,-000.58,18.0,24.5,01.9,01.2,0670.3,30.9
2021-08-04T05:10:00Z,00000200,01000000,0000.24,-000.16,0000.04,0000.14,0000.02,0000.02,-000.07,-000.15,-000.18,17.9,24.5,01.6,01.1,0670.3,30.9
2021-08-04T05:11:00Z,00000200,01000000,0000.68,0000.50,0000.10,0000.70,-000.02,0000.17,-000.11,-000.31,-000.34,17.9,24.5,01.6,01.1,0670.3,30.9
2021-08-04T05:12:00Z,00000200,01000000,0000.84,-000.07,0000.36,0000.33,-000.19,-000.04,0000.04,0000.10,0000.50,17.9,24.5,01.8,01.2,0670.8,30.9
2021-08-04T05:13:00Z,00000200,01000000,0000.81,0000.08,-000.19,0000.15,0000.03,-000.10,0000.33,0000.50,0000.28,17.8,24.4,01.7,01.1,0670.8,30.9
2021-08-04T05:14:00Z,00000200,01000000,0001.21,0000.00,0000.19,0001.00,0000.08,0000.24,0001.40,0001.54,0001.41,17.8,24.4,02.0,01.3,0670.8,30.9
2021-08-04T05:15:00Z,00000200,00000000,0000.43,0000.32,0000.15,0000.23,0000.17,-000.08,0001.17,0001.05,0001.01,17.8,24.4,03.1,02.0,0670.8,30.9
2021-08-04T05:16:00Z,00000200,00000000,0001.28,-000.29,0000.22,0000.39,0000.09,-000.03,0000.44,0000.86,0000.71,17.8,24.4,02.7,01.8,0670.7,30.9
2021-08-04T05:17:00Z,00000200,00000000,0000.87,0000.41,0000.29,0000.25,0000.23,0000.11,0000.70,0000.55,0000.59,17.9,24.5,02.9,02.0,0670.7,30.9
2021-08-04T05:18:00Z,00000200,00000000,0000.83,0000.51,0000.23,-000.03,0000.11,-000.15,0000.54,0000.42,0000.35,18.1,24.5,03.1,02.1,0670.7,30.9
2021-08-04T05:19:00Z,00000200,00000000,0001.05,0000.35,0000.34,-000.33,0000.44,0000.17,-000.12,-000.08,-000.09,18.2,24.6,03.1,02.1,0670.7,30.9
2021-08-04T05:20:00Z,00000200,00000000,0000.85,0000.32,0000.03,-000.22,0000.03,-000.19,-000.03,-000.15,-000.31,18.2,24.6,02.9,02.0,0670.7,30.9
2021-08-04T05:21:00Z,00000200,00000000,0001.17,0000.27,0000.12,0000.00,0000.03,0000.10,0001.71,0001.56,0002.11,18.3,24.6,03.4,02.3,0670.7,30.9
2021-08-04T05:22:00Z,00000200,00000000,-000.03,0000.26,-000.10,0000.59,0000.08,-000.05,-001.56,-001.42,-002.23,18.2,24.6,03.3,02.3,0670.7,30.9
2021-08-04T05:23:00Z,00000200,00000000,0000.23,0000.43,0000.26,-000.11,-000.01,0000.20,-000.40,-000.54,-000.09,18.2,24.6,02.7,01.8,0670.7,30.9
2021-08-04T05:24:00Z,00000200,00000000,0001.29,0000.05,0000.03,-000.08,0000.13,-000.08,0000.66,0000.64,0000.69,18.1,24.5,02.9,01.9,0670.7,30.9
2021-08-04T05:25:00Z,00000200,00000000,0000.42,-000.04,0000.01,-000.35,-000.06,-000.12,-000.28,0000.08,-000.18,18.1,24.5,03.1,02.1,0670.7,30.9
2021-08-04T05:26:00Z,00000200,00000000,0001.12,0000.35,0000.04,0000.24,-000.25,0000.19,0000.44,0000.34,0000.45,18.0,24.5,03.0,02.0,0670.7,30.9
2021-08-04T05:27:00Z,00000200,00000000,0000.57,0000.25,0000.13,0000.27,0000.33,-000.04,-000.14,-000.64,0000.07,18.0,24.5,03.1,02.1,0670.7,30.9
2021-08-04T05:28:00Z,00000200,00000000,0000.47,0000.11,0000.21,-000.10,0000.25,0000.07,-000.52,-000.55,-000.98,17.9,24.5,03.0,02.0,0670.7,30.9
2021-08-04T05:29:00Z,00000200,00000000,0000.17,0000.13,0000.11,-000.34,0000.27,-000.19,0000.34,0000.75,0000.68,17.9,24.4,03.0,02.0,0670.7,30.9
2021-08-04T05:30:00Z,00000200,00000000,0000.89,0000.21,0000.29,-000.06,0000.06,-000.05,-000.77,-001.21,-001.41,17.9,24.4,02.7,01.8,0670.7,30.9
2021-08-04T05:31:00Z,00000200,00000000,0000.72,0000.02,0000.10,0000.05,0000.12,0000.02,0000.11,0000.42,0000.20,17.9,24.4,02.2,01.5,0670.7,30.9
2021-08-04T05:32:00Z,00000200,00000000,0001.04,0000.21,0000.08,0000.06,0000.02,-000.03,-000.22,-000.32,-000.14,18.0,24.5,02.4,01.6,0670.7,30.9
2021-08-04T05:33:00Z,00000200,00000000,0000.64,0000.24,0000.19,-000.53,0000.23,0000.17,0000.71,0000.67,0000.80,18.1,24.5,02.4,01.6,0670.7,30.9
2021-08-04T05:34:00Z,00000200,00000000,0000.85,-000.12,-000.02,0000.28,0000.17,0000.12,-000.04,-000.09,0000.06,18.1,24.5,02.4,01.6,0670.7,30.9
2021-08-04T05:35:00Z,00000200,00000000,0000.68,0000.09,-000.10,-000.19,-000.03,0000.03,-000.76,-000.48,-000.68,18.1,24.5,02.3,01.6,0670.7,30.9
2021-08-04T05:36:00Z,00000200,00000000,0000.88,0000.17,0000.13,0000.31,0000.03,0000.10,0000.98,0000.51,0000.64,18.1,24.5,02.3,01.6,0670.7,30.9
2021-08-04T05:37:00Z,00000200,00000000,0000.07,0000.43,0000.24,-000.33,0000.19,0000.38,-001.23,-001.04,-001.07,18.0,24.5,02.3,01.6,0670.7,30.9
2021-08-04T05:38:00Z,00000200,00000000,0000.15,0000.15,0000.53,-000.19,0000.06,0000.23,0000.03,-000.05,-000.28,18.0,24.5,02.0,01.4,0670.7,30.9
2021-08-04T05:39:00Z,00000200,00000000,0001.14,0000.82,0000.49,0000.47,0000.24,0000.27,0004.41,0005.01,0005.12,17.9,24.5,03.5,02.3,0671.0,30.9
2021-08-04T05:40:00Z,00000200,00000000,0000.78,-000.11,0000.23,0000.37,0000.30,0000.18,-002.81,-003.46,-003.41,17.9,24.4,03.2,02.1,0670.9,30.9
2021-08-04T05:41:00Z,00000200,00000000,0000.95,0000.33,0000.22,0000.42,-000.02,-000.15,-000.90,-000.91,-001.16,17.8,24.4,02.1,01.4,0670.9,30.9
2021-08-04T05:42:00Z,00000200,01000000,0001.16,0000.07,0000.08,0000.22,0000.16,0000.37,-000.26,-000.12,-000.09,17.8,24.4,01.9,01.3,0670.9,30.9
2021-08-04T05:43:00Z,00000200,01000000,0000.84,0000.20,-000.18,-000.16,-000.02,-000.05,0000.44,0000.16,0000.63,17.8,24.4,01.8,01.2,0670.9,30.9
2021-08-04T05:44:00Z,00000200,01000000,0000.80,-000.10,-000.08,0000.00,0000.15,0000.15,-000.14,0000.01,-000.27,17.7,24.4,01.8,01.2,0670.9,30.8
2021-08-04T05:45:00Z,00000200,00000000,0000.14,0000.13,-000.05,-000.40,0000.01,-000.01,0000.38,0000.48,0000.73,17.7,24.3,01.9,01.3,0670.9,30.9
2021-08-04T05:46:00Z,00000200,00000000,-000.02,0000.02,0000.38,0000.58,0000.02,0000.14,0000.40,0000.47,0000.03,17.8,24.3,02.0,01.3,0670.9,30.9
2021-08-04T05:47:00Z,00000200,00000000,0000.17,0000.25,0000.13,-000.40,0000.15,-000.12,0000.22,0000.07,0000.35,17.9,24.4,02.1,01.4,0670.8,30.9
2021-08-04T05:48:00Z,00000200,01000000,0000.76,0000.01,0000.04,0000.11,-000.21,-000.01,-000.09,0000.08,-000.35,18.0,24.4,02.1,01.4,0670.8,30.9
2021-08-04T05:49:00Z,00000200,01000000,0000.00,0000.08,0000.46,-000.24,0000.18,-000.02,-000.05,-000.39,-000.51,18.1,24.5,02.0,01.4,0670.8,30.9
2021-08-04T05:50:00Z,00000200,00000000,0000.82,-000.05,0000.04,0000.10,-000.02,0000.11,-000.81,-000.03,-000.00,18.1,24.5,01.9,01.3,0670.9,30.9
2021-08-04T05:51:00Z,00000200,01000000,-000.12,-000.35,-000.07,-000.25,-000.04,-000.30,-000.07,-000.48,-000.24,18.1,24.5,01.9,01.3,0670.9,30.9
2021-08-04T05:52:00Z,00000200,01000000,0000.29,-000.32,0000.01,0000.28,0000.16,-000.05,-000.39,-000.65,-000.34,18.1,24.5,01.6,01.1,0670.9,30.9
2021-08-04T05:53:00Z,00000200,01000000,0000.84,0000.14,0000.06,-000.13,-000.03,-000.16,-000.01,0000.10,-000.21,18.0,24.4,01.5,01.0,0670.9,30.9
2021-08-04T05:54:00Z,00000200,01000000,0000.04,0000.02,0000.14,0000.29,-000.27,-000.18,-000.53,-000.53,-000.20,18.0,24.4,01.5,01.0,0670.9,30.9
2021-08-04T05:55:00Z,00000200,01000000,0000.36,0000.14,0000.05,0000.55,0000.15,-000.15,0000.10,0000.02,0000.07,17.9,24.4,01.4,01.0,0671.0,30.9
2021-08-04T05:56:00Z,00000200,01000000,-000.07,-000.07,0000.10,0000.47,0000.13,0000.02,-000.19,0000.07,-000.25,17.9,24.4,01.5,01.0,0670.9,30.9
2021-08-04T05:57:00Z,00000200,40000000,,,,,,,0000.96,0000.65,0000.50,17.9,24.4,01.5,01.0,0670.9,30.9
2021-08-04T05:58:00Z,00000200,60000000,,,,,,,-000.75,-000.97,-000.53,17.5,24.5,01.7,01.1,0669.9,30.9
2021-08-04T05:59:00Z,00000200,20000000,,,,,,,-000.59,-000.40,-000.06,17.5,24.6,01.5,01.0,0669.9,30.9
